This demonstration page uses our WeatherBlox Daily Observations layout. Learn more.

39.92423, -83.80882

Hourly Observations for June 30, 2018

Temp ( °F °C ) Dew Point ( °F °C ) Humidity (%) Winds ( mph kmh ) Pressure ( in mb ) Visibility ( mi km ) Precip ( " mm )
1:56 am 01:56 Clear 73 22.8 70 21.1 90 90 S 3 6 30.05 1018 10 16.0934 0 0
2:56 am 02:56 Clear 72 22.2 69 20.6 91 91 Calm 30.04 1017 10 16.0934 0 0
3:56 am 03:56 Clear 72 22.2 69 20.6 91 91 S 5 7 30.04 1017 10 16.0934 0 0
4:56 am 04:56 Clear 71 21.7 68 20 90 90 VRB 3 6 30.04 1017 10 16.0934 0 0
5:56 am 05:56 Clear 69 20.6 66 18.9 90 90 SSE 5 7 30.05 1018 10 16.0934 0 0
6:56 am 06:56 Sunny 67 19.4 65 18.3 93 93 E 3 6 30.07 1018 9 14.48406 0 0
7:56 am 07:56 Sunny 74 23.3 69 20.6 85 85 SSW 3 6 30.07 1018 10 16.0934 0 0
8:56 am 08:56 Sunny 77 25 70 21.1 79 79 S 6 9 30.08 1019 10 16.0934 0 0
9:56 am 09:56 Sunny 81 27.2 72 22.2 74 74 SSW 6 9 30.08 1019 10 16.0934 0 0
10:56 am 10:56 Sunny 83 28.3 72 22.2 70 70 SSW 8 13 30.09 1019 10 16.0934 0 0
11:56 am 11:56 Sunny 84 28.9 72 22.2 67 67 S 7 11 30.09 1019 10 16.0934 0 0
12:56 pm 12:56 Sunny 86 30 72 22.2 63 63 Calm 30.1 1019 10 16.0934 0 0
1:56 pm 13:56 Sunny 87 30.6 72 22.2 61 61 Calm 30.09 1019 10 16.0934 0 0
2:56 pm 14:56 Sunny 88 31.1 73 22.8 61 61 SW 7 11 30.07 1018 10 16.0934 0 0
3:56 pm 15:56 Sunny 89 31.7 72 22.2 57 57 SSE 8 13 30.06 1018 10 16.0934 0 0
4:56 pm 16:56 Sunny 89 31.7 73 22.8 59 59 SSE 8 13 30.04 1017 9 14.48406 0 0
5:08 pm 17:08 Hazy 90 32 72 22 55 55 VRB 7 11 30 1016 2.5 4.02335 0 0
5:15 pm 17:15 Hazy 90 32 70 21 52 52 SSE 5 7 30 1016 5 8.0467 0 0
5:56 pm 17:56 Sunny 88 31.1 70 21.1 55 55 SSE 5 7 30.03 1017 10 16.0934 0 0
6:56 pm 18:56 Sunny 87 30.6 72 22.2 61 61 SSE 6 9 30.02 1017 10 16.0934 0 0
7:56 pm 19:56 Sunny 85 29.4 74 23.3 70 70 SSE 3 6 30.01 1016 10 16.0934 0 0
8:56 pm 20:56 Sunny 81 27.2 72 22.2 74 74 undefined N/A 29.99 1016 10 16.0934 0 0
9:56 pm 21:56 Clear 78 25.6 70 21.1 76 76 SE 5 7 30 1016 10 16.0934 0 0
10:56 pm 22:56 Clear 75 23.9 70 21.1 84 84 SE 6 9 30.01 1016 10 16.0934 0 0
11:56 pm 23:56 Clear 74 23.3 69 20.6 85 85 SSE 7 11 30.01 1016 10 16.0934 0 0

Powered by AerisWeather